Theta_e
311 313 314 315 314 315 313 313 313 314 314 312 313 314 313 312 312 312 313 313 313 313 312 311 311 311 312 312 312 312 312 312 311 311 311 312 312 313 314 314 314 313 312 310
311 313 314 313 311 311 312 313 314 314 313 310 313 313 313 313 313 313 313 313 313 312 311 311 312 311 311 311 310 311 311 311 311 310 310 310 310 310 312 313 313 313 312 310
314 315 311 311 312 312 313 313 314 314 313 311 311 314 314 314 312 313 312 312 311 310 311 311 310 311 312 312 312 311 311 310 310 310 309 308 308 308 309 309 311 312 312 311
312 311 310 310 311 312 314 314 312 311 311 313 311 315 317 316 316 315 312 310 310 310 309 308 307 309 310 311 312 312 311 310 309 308 307 308 307 307 308 308 308 309 310 311
314 310 310 311 312 310 313 309 310 310 311 311 313 313 319 314 314 314 311 310 308 307 306 305 304 306 308 310 311 309 310 310 309 307 306 305 304 305 305 304 306 307 307 307
310 306 308 311 308 309 308 310 311 309 311 316 317 315 316 315 314 313 310 307 306 304 303 302 303 306 307 307 308 307 307 307 306 306 305 305 305 303 302 303 303 304 304 306
316 316 308 307 310 307 309 311 316 321 319 321 311 315 315 315 313 309 307 305 303 302 301 300 301 302 302 304 304 305 305 305 305 305 303 302 303 303 303 302 302 302 302 303
317 319 310 308 310 314 311 312 320 324 323 323 319 320 319 313 307 306 305 304 303 301 300 302 302 302 302 302 302 302 303 303 303 303 304 304 303 302 301 301 301 301 302 302
317 317 309 305 307 309 310 311 313 314 316 317 317 317 313 309 307 306 304 303 301 299 298 297 296 298 301 302 301 302 301 300 300 301 301 301 302 303 303 301 300 300 301 300
314 318 314 309 306 307 310 311 314 312 318 319 317 317 316 311 308 306 304 301 299 297 297 296 295 296 297 299 299 298 298 299 299 298 298 299 299 301 303 302 301 299 299 299
311 314 316 312 312 313 309 309 309 311 315 319 319 316 313 310 306 305 301 298 297 296 295 295 298 299 298 298 299 298 298 297 298 299 298 297 297 298 298 300 300 301 301 299
311 314 316 314 313 311 309 312 312 314 315 314 315 315 312 306 302 299 297 295 294 294 294 293 292 293 294 294 295 295 295 295 294 294 296 297 297 296 296 297 298 299 299 301
311 315 316 316 313 310 311 312 311 313 313 316 317 316 307 302 298 296 295 294 293 293 291 291 291 290 290 290 290 290 290 290 291 291 291 291 293 295 296 294 295 297 298 298
309 310 313 314 312 311 313 311 308 309 312 313 313 311 308 307 305 298 295 293 293 292 289 289 290 289 289 288 287 287 287 288 288 288 288 288 288 288 289 291 291 292 295 296
306 309 308 308 308 308 307 306 305 305 305 306 307 306 305 304 296 293 291 291 292 292 289 288 288 288 287 287 287 286 286 286 286 286 286 286 286 287 287 287 288 288 289 291
300 305 303 302 303 303 303 301 301 301 301 300 301 302 300 294 293 293 291 290 290 290 289 289 288 287 287 286 286 286 286 286 286 285 285 286 286 286 286 285 286 286 286 286
298 300 301 302 301 298 299 299 300 300 299 299 298 297 293 293 293 292 291 290 290 290 289 288 288 288 287 286 286 285 285 285 285 285 285 285 285 285 285 285 285 285 285 285
297 298 299 299 293 297 298 295 296 296 297 296 295 293 293 292 291 291 290 290 290 290 289 289 288 287 287 286 285 285 285 284 284 285 285 285 285 285 285 285 285 285 285 285
295 295 295 295 296 295 294 294 294 295 295 295 295 293 291 291 291 291 290 289 289 289 288 288 288 288 287 286 284 284 285 284 284 284 283 283 284 284 285 285 285 285 284 284
292 294 295 287 293 293 294 292 290 290 294 290 290 291 291 290 291 291 290 290 289 288 288 288 288 288 287 286 284 283 282 281 281 282 282 281 282 282 283 284 284 285 284 284
292 292 294 295 294 294 294 291 290 292 293 291 291 290 290 291 291 290 290 289 289 289 288 288 286 286 286 285 283 282 280 279 279 278 279 280 279 278 279 280 282 282 283 284
291 292 291 288 291 292 290 289 291 293 291 291 290 290 290 290 290 289 289 289 289 288 287 287 286 285 285 282 280 279 279 278 277 276 275 275 274 274 274 274 276 278 279 280
291 292 291 290 292 291 289 291 291 291 291 290 290 290 290 289 289 289 288 288 287 285 285 285 283 282 281 280 277 276 276 274 273 273 272 271 271 270 270 270 271 271 272 274
291 291 290 291 291 291 291 291 290 290 290 290 290 289 289 288 287 287 286 285 284 283 281 280 280 279 279 277 275 273 272 272 270 269 268 267 267 267 266 267 267 268 269 271
291 290 290 291 291 290 290 290 290 290 290 289 289 288 287 286 285 284 283 282 281 279 278 276 275 275 276 274 274 272 271 268 266 265 264 263 264 264 264 265 265 266 267 269
291 291 291 291 291 291 290 290 290 289 289 289 288 286 285 283 283 282 281 278 277 276 275 275 274 273 273 272 271 271 268 266 264 263 263 263 262 263 263 263 264 265 267 268
Wind_Speed
6 8 13 20 21 21 14 17 21 20 18 15 21 23 20 29 35 37 33 30 22 16 15 17 13 11 9 8 8 12 18 21 25 32 40 45 51 52 53 53 51 51 49 48
4 13 17 10 6 11 17 22 22 22 16 7 17 23 25 25 26 30 31 24 15 9 11 19 21 22 21 19 15 10 11 15 20 26 31 37 41 46 49 52 55 54 53 52
18 11 3 14 13 14 18 16 21 23 16 14 13 13 3 6 10 20 16 14 7 8 17 20 22 24 25 28 27 23 17 14 16 19 25 30 36 40 39 44 53 55 54 54
10 6 7 4 10 15 19 15 16 14 8 9 8 10 12 12 18 12 16 16 20 21 21 21 21 23 25 26 24 24 22 18 13 13 19 24 29 33 36 40 41 47 52 55
5 1 2 7 11 6 9 5 4 4 8 8 5 6 7 5 4 7 12 16 20 22 23 24 24 26 25 26 25 23 21 20 17 12 13 18 23 26 27 30 37 37 40 47
12 2 4 5 3 5 1 4 7 2 4 9 10 8 2 3 2 9 12 17 22 22 21 22 23 25 28 27 24 24 24 24 21 16 12 12 17 21 24 30 34 37 37 37
17 15 3 5 7 2 4 5 5 5 5 7 6 3 7 11 6 12 15 14 16 15 21 28 28 31 31 30 28 27 26 24 23 22 16 13 12 14 20 23 29 32 35 37
11 21 7 7 5 3 5 7 4 6 10 16 12 8 7 5 20 16 19 18 21 26 24 26 28 26 26 28 30 30 26 24 25 22 19 18 17 15 16 18 22 26 29 31
5 8 2 4 1 2 4 6 8 4 5 6 10 17 7 9 9 14 17 18 19 18 18 19 20 24 28 28 27 28 27 26 24 22 24 23 21 19 19 19 21 22 25 28
1 6 6 3 2 7 8 4 7 5 5 9 14 13 10 11 4 7 11 14 15 14 16 18 20 22 25 28 28 27 27 27 25 25 24 23 24 24 22 23 23 24 23 24
8 6 9 1 8 17 5 6 6 2 4 4 4 9 2 3 5 7 8 11 14 16 16 17 20 22 23 23 24 26 28 29 29 28 28 27 26 25 25 24 23 24 25 24
8 5 11 23 21 8 6 10 13 8 9 10 13 18 12 5 7 6 5 7 8 10 13 14 15 17 19 20 23 24 25 27 29 28 27 27 28 28 28 29 29 28 27 28
4 3 7 7 8 3 8 11 13 16 12 19 18 15 6 9 9 7 4 2 2 4 8 10 11 13 16 20 22 23 25 26 26 28 28 29 28 26 28 29 29 29 30 28
2 4 9 10 14 11 5 3 6 4 4 8 7 10 14 17 20 5 2 3 3 3 7 10 11 13 15 17 21 23 23 25 27 29 30 30 32 32 30 29 30 29 29 31
2 9 15 17 18 15 14 13 16 17 16 9 18 17 21 18 4 2 1 3 7 7 6 8 10 14 17 20 22 24 25 25 27 29 31 33 34 34 34 35 34 33 32 31
0 6 6 9 12 13 10 14 20 21 23 23 25 26 12 0 2 4 6 7 7 7 8 12 14 17 19 19 20 22 25 27 28 30 31 33 35 37 38 39 37 39 38 37
3 3 6 17 16 12 12 21 20 23 24 23 21 10 3 1 6 11 9 13 13 12 15 16 15 16 17 22 23 24 26 26 28 32 35 37 38 40 41 42 45 43 42 41
13 13 8 10 5 19 13 7 11 15 10 3 3 5 4 5 12 14 13 17 19 16 16 18 18 18 19 23 25 28 31 33 34 34 35 37 41 44 46 47 47 48 49 47
19 14 7 6 12 16 18 9 6 6 10 8 7 5 4 10 11 22 16 20 22 21 20 21 28 32 34 33 32 37 40 40 40 40 40 39 40 42 45 49 52 51 52 54
8 13 9 3 6 9 6 2 3 3 8 8 7 4 8 8 10 14 26 23 24 25 27 28 31 36 40 41 42 41 41 42 43 45 46 48 48 48 47 48 49 54 58 58
3 3 13 13 11 9 5 4 7 5 5 11 10 15 15 11 19 27 26 24 27 30 33 32 32 40 42 45 46 48 47 43 36 38 48 54 55 56 59 59 57 55 56 61
5 5 4 1 4 11 5 7 6 2 7 22 21 23 22 23 23 24 25 25 23 26 30 34 41 44 46 45 45 49 52 47 40 39 42 46 53 57 61 61 63 63 60 58
7 9 6 8 6 2 11 9 19 29 31 32 26 26 22 21 22 22 21 22 23 25 32 37 41 46 47 48 46 48 56 52 55 56 57 52 49 50 52 52 54 52 53 52
17 22 11 12 19 22 31 35 37 35 30 28 26 27 26 20 17 22 21 23 26 29 31 35 41 46 51 52 52 49 52 54 56 57 55 49 45 45 43 43 43 43 44 43
15 6 10 14 21 26 32 33 38 36 31 27 25 22 19 18 19 20 22 26 28 29 31 32 39 47 52 51 51 49 49 48 48 47 45 43 41 40 40 39 39 39 40 39
21 19 12 15 29 24 32 32 30 24 24 23 20 19 17 17 19 22 25 25 28 30 34 39 42 44 46 45 47 47 44 41 41 44 42 40 41 41 40 41 42 38 38 39
Wind_Direction
186 209 210 226 227 247 283 272 273 278 279 294 282 291 296 289 280 276 286 279 283 288 320 340 353 353 342 322 295 281 276 271 261 254 247 244 243 243 242 241 242 240 238 236
176 236 237 261 263 251 259 268 276 280 275 287 290 297 289 274 276 276 278 285 297 327 16 54 50 49 42 33 16 350 312 289 276 267 259 253 250 247 245 243 242 241 239 237
246 267 260 219 240 259 249 264 275 284 307 277 293 281 269 280 271 284 289 291 311 76 72 48 43 43 45 40 30 20 6 334 299 284 270 259 251 250 251 248 245 243 241 241
256 295 236 214 241 246 277 263 267 282 299 291 355 295 298 264 274 322 39 65 95 68 47 40 44 47 40 35 30 20 13 2 338 296 277 272 268 260 259 258 257 254 247 244
282 230 185 224 241 220 261 1 302 295 276 297 258 260 314 252 271 60 67 92 74 39 46 39 36 40 41 35 29 28 22 15 8 357 312 284 274 267 264 262 264 265 265 253
268 263 247 253 187 216 234 297 278 202 264 261 261 216 325 356 122 62 68 71 43 45 46 42 39 40 38 37 35 31 27 26 26 19 1 327 308 293 275 276 274 273 270 264
307 286 222 227 247 154 224 305 308 271 222 271 108 284 268 277 354 60 87 62 56 49 42 33 32 30 28 29 28 28 28 24 19 14 13 359 340 318 299 290 282 278 276 274
287 301 200 164 228 215 173 176 203 271 283 293 313 255 259 243 92 78 55 46 39 35 34 28 25 26 22 21 19 18 19 19 17 14 9 359 346 330 308 300 293 288 286 282
238 251 350 227 181 206 104 207 234 245 273 276 260 261 242 102 85 61 54 42 34 26 25 19 14 12 11 10 8 6 5 9 11 10 6 4 356 339 321 305 291 288 288 286
254 270 239 214 193 216 210 206 223 239 246 244 261 264 265 182 74 53 49 30 18 15 17 12 9 7 4 1 1 358 359 358 0 3 3 2 354 348 338 323 311 297 289 287
175 219 283 184 229 260 206 213 212 122 225 257 274 274 76 58 111 60 33 15 8 9 14 10 5 359 355 353 352 353 351 350 350 349 350 353 354 351 350 346 335 313 297 288
208 244 258 265 271 258 270 252 215 228 232 231 248 249 324 113 111 76 45 15 9 8 3 2 4 358 356 354 351 350 348 348 350 350 345 341 341 344 345 343 342 340 324 302
46 282 270 249 246 328 256 261 253 262 273 253 258 256 109 137 133 74 77 50 2 9 3 357 360 359 354 350 346 346 346 346 345 344 345 344 342 334 331 337 337 334 333 331
5 210 239 285 298 301 268 313 317 283 281 328 293 311 307 306 309 14 127 288 288 335 359 344 347 347 348 348 344 343 344 343 340 339 338 339 339 340 340 334 331 330 328 324
237 260 272 277 283 285 274 274 275 266 274 265 283 278 276 291 336 29 40 287 255 271 307 329 333 336 336 333 333 330 334 336 335 335 334 333 332 331 331 332 330 329 325 322
128 271 289 272 275 264 267 271 269 273 271 265 263 268 295 352 312 285 297 311 289 303 314 321 326 325 326 324 318 318 320 324 328 327 327 326 325 325 326 328 328 328 328 325
263 267 268 271 283 311 272 249 266 273 272 269 269 300 90 302 301 312 314 317 307 308 327 324 309 301 298 314 310 312 312 311 312 313 315 317 318 318 319 320 320 322 323 323
248 248 256 272 317 263 279 313 269 264 280 162 128 169 206 280 300 296 296 295 294 279 299 313 315 310 302 302 302 308 310 306 305 303 302 304 308 310 312 312 313 315 317 317
233 252 253 248 248 286 299 247 230 227 283 198 173 182 302 293 284 286 288 294 288 271 286 305 318 318 315 312 312 314 312 310 306 304 302 301 299 298 300 303 306 308 309 309
217 229 227 161 243 262 300 147 123 139 274 178 190 223 290 294 283 295 310 302 296 287 282 300 307 311 311 312 313 312 309 308 307 307 304 303 301 298 294 293 294 298 301 300
175 197 223 232 249 268 248 157 153 235 302 163 230 271 277 270 268 284 292 293 299 289 283 292 305 309 307 309 310 308 309 305 301 297 300 299 298 297 297 295 292 289 288 290
241 228 201 185 250 268 157 127 218 264 287 301 296 292 289 290 284 285 288 292 289 282 288 295 304 304 304 307 310 308 307 308 302 297 293 290 292 293 293 293 292 290 288 285
254 224 247 215 243 255 190 248 268 285 287 286 287 291 293 284 282 287 290 289 288 292 298 302 303 304 306 309 309 306 305 303 302 298 295 293 291 288 289 289 290 288 288 286
257 255 244 260 255 259 269 271 273 277 278 282 286 290 289 282 283 289 291 292 296 301 304 305 305 307 307 308 308 307 306 306 304 299 296 295 293 291 287 285 283 282 281 280
245 245 245 255 261 270 264 264 269 271 275 276 275 278 280 284 289 292 294 299 303 304 305 306 307 309 309 312 311 312 313 312 308 304 300 299 297 294 291 286 281 278 275 272
247 248 248 252 265 262 272 274 275 272 265 261 266 273 278 284 289 294 299 302 304 307 310 312 312 313 314 315 314 315 317 315 311 307 302 299 297 295 292 289 288 285 278 275